www.pogodaiklimat.ru

Погода и климат >> Архив погоды >> Франция >> Бастия


ПОГОДА в Бастии

  • Прогноз погоды в Бастии
  • Монитор погоды в Бастии

АРХИВ ПОГОДЫ в Бастии

Время (UTC), дата Ветер
(напр.,м/с)
 
Видим.   Явления Облачность Т
(С)
Тd
(С)
f
(%)
Тe
(С)
Тes
(С)
Комфортность P
(гПа)
Po
(гПа)
Тmin
(С)
Tmax
(С)
R
(мм)
R24
(мм)
S
(см)
10 17.06 С 2 19 км н/о +24.4 +18.6 70 +29 +29 душно 1016.0 1014.6
11 17.06 СВ 2 45 км н/о +25.3 +19.0 68 +30 +30 душно 1015.4 1014.0
12 17.06 С 4
{11}
19 км н/о +24.6 +17.1 63 +28 +28 душно 1015.2 1013.8 0
13 17.06 СВ 2 18 км н/о +26.2 +16.2 54 +30 +30 душно 1014.8 1013.4
14 17.06 С 2 60 км н/о +27.1 +14.1 45 +29 +29 жарко 1014.5 1013.1
15 17.06 С 3
{7}
40 км н/о +26.7 +12.7 42 +28 +28 жарко 1014.0 1012.6 0
16 17.06 СВ 3
{6}
45 км н/о +26.9 +13.3 43 +29 +29 жарко 1013.6 1012.2
17 17.06 СВ 1 45 км н/о +25.5 +13.7 48 +28 +28 жарко 1014.0 1012.6
18 17.06 СВ 1
{4}
55 км н/о +25.8 +14.3 49 +28 +28 жарко 1013.8 1012.4 +20.8 +27.1 0
19 17.06 ЮВ 1 40 км н/о +22.2 +16.0 68 +26 +26 душно 1014.0 1012.6
20 17.06 ЮЗ 1 45 км н/о +20.0 +16.2 79 +24 +24 комфорт 1013.9 1012.5
21 17.06 Ю 1
{2}
19 км н/о +18.3 +15.9 86 +20 +20 1014.5 1013.1 0
22 17.06 ЮЗ 2 60 км н/о +22.2 +12.2 53 +25 +25 комфорт 1014.4 1013.0
23 17.06 ЮВ 1 55 км н/о +22.9 +12.5 52 +26 +26 жарко 1014.8 1013.4
00 18.06 З 2
{6}
40 км н/о +20.5 +16.7 79 +24 +24 комфорт 1015.5 1014.1 0
01 18.06 ЮЗ 1-2
{3}
55 км н/о +18.3 +12.7 70 +20 +20 1014.5 1013.1
02 18.06 ЮЗ 2 55 км н/о +21.1 +12.0 56 +23 +23 комфорт 1014.1 1012.7
03 18.06 ЮЗ 4
{6}
60 км н/о +21.7 +11.7 53 +24 +24 комфорт 1014.0 1012.6 0
04 18.06 ЮЗ 2 60 км н/о +21.2 +11.5 54 +23 +23 комфорт 1014.0 1012.6
05 18.06 ЮЗ 3 28 км н/о +21.7 +11.4 52 +24 +24 комфорт 1014.4 1013.0
06 18.06 З 2
{9}
40 км н/о +24.1 +13.3 51 +26 +26 жарко 1015.0 1013.6 +17.9 +26.0 0
07 18.06 СВ 1 19 км н/о +25.9 +14.7 50 +28 +28 жарко 1015.3 1013.9
08 18.06 СВ 2 55 км н/о +26.3 +15.7 52 +29 +29 жарко 1015.2 1013.8
09 18.06 В 3
{6}
55 км н/о +26.2 +15.9 53 +29 +29 жарко 1015.4 1014.0 0
10 18.06 В 2 55 км н/о +26.5 +16.1 53 +30 +30 душно 1015.6 1014.2
11 18.06 ЮВ 2 19 км н/о +26.7 +16.3 53 +30 +30 душно 1015.6 1014.2
12 18.06 В 3
{6}
55 км н/о +27.2 +17.7 56 +31 +31 душно 1015.2 1013.8 0
13 18.06 В 2 50 км н/о +28.3 +14.5 43 +31 +31 душно 1014.9 1013.5
14 18.06 В 2 40 км н/о +28.3 +13.0 39 +30 +30 жарко 1014.7 1013.3
15 18.06 ЮВ 3
{5}
19 км н/о +28.8 +14.2 41 +31 +31 жарко 1014.4 1013.0 0
16 18.06 ЮВ 2 50 км н/о +28.6 +14.1 41 +31 +31 жарко 1013.9 1012.5
17 18.06 ЮВ 2 50 км н/о +27.6 +14.2 44 +30 +30 жарко 1013.9 1012.5
18 18.06 ЮВ 2
{5}
50 км н/о +25.9 +15.6 53 +29 +29 душно 1014.1 1012.7 +24.1 +29.0 0
19 18.06 СВ 1 19 км н/о +23.4 +15.4 61 +28 +28 душно 1014.2 1012.8
20 18.06 ЮЗ 1 35 км н/о +21.5 +16.0 71 +25 +25 комфорт 1014.7 1013.3
21 18.06 ЮВ 2
{3}
40 км н/о +20.1 +15.7 76 +23 +23 комфорт 1014.8 1013.4 0
22 18.06 С 1 20 км н/о +19.6 +15.3 76 +23 +23 комфорт 1015.0 1013.6
23 18.06 Ю 2-2
{2}
45 км н/о +18.0 +12.7 71 +19 +19 1014.9 1013.5
00 19.06 ЮЗ 2-2
{3}
55 км н/о +19.2 +11.2 60 +21 +21 комфорт 1014.4 1013.0 0
01 19.06 Ю 1 55 км н/о +17.8 +12.0 69 +19 +19 1014.0 1012.6
02 19.06 Ю 2 20 км н/о +17.5 +11.5 68 +18 +18 1013.8 1012.4
03 19.06 З 1
{3}
20 км н/о +18.7 +12.0 65 +20 +20 1014.2 1012.8 0
04 19.06 ЮЗ 1-1
{1}
50 км н/о +17.8 +11.8 68 +19 +19 1014.4 1013.0
05 19.06 ЮЗ 1 50 км н/о +19.7 +12.7 64 +22 +22 комфорт 1014.4 1013.0
06 19.06 ЮЗ 2
{4}
45 км н/о +22.6 +14.4 60 +26 +26 жарко 1014.7 1013.3 +17.3 +25.9 0
07 19.06 ЮВ 1 30 км н/о +25.9 +15.6 53 +29 +29 душно 1014.7 1013.3
08 19.06 ЮВ 1 19 км н/о +27.5 +14.8 46 +30 +30 жарко 1014.6 1013.2
09 19.06 В 3
{6}
19 км н/о +27.8 +14.8 45 +30 +30 жарко 1014.6 1013.2 0
10 19.06 В 2 45 км н/о +27.6 +14.6 45 +30 +30 жарко 1014.7 1013.3
11 19.06 В 2 40 км н/о +28.4 +15.0 44 +31 +31 душно 1014.9 1013.5
12 19.06 В 4
{6}
40 км н/о +27.9 +14.5 44 +30 +30 жарко 1014.8 1013.4 0
13 19.06 В 2 40 км н/о +27.7 +16.9 52 +32 +32 очень
душно
1014.7 1013.3
14 19.06 В 2 19 км н/о +28.1 +18.8 57 +33 +33 очень
душно
1014.4 1013.0
15 19.06 В 4
{6}
19 км н/о +27.3 +18.0 57 +32 +32 очень
душно
1014.2 1012.8 0
16 19.06 В 1 40 км н/о +27.0 +16.6 53 +31 +31 душно 1013.7 1012.3
17 19.06 В 1 19 км н/о +26.4 +17.7 59 +31 +31 душно 1013.6 1012.2
18 19.06 В 2
{4}
35 км н/о +25.3 +18.5 66 +30 +30 душно 1013.7 1012.3 +22.7 +28.7 0
19 19.06 В 1 19 км н/о +23.5 +17.7 70 +28 +28 душно 1013.8 1012.4
20 19.06 ЮЗ 1 29 км н/о +21.1 +18.3 84 +25 +25 комфорт 1014.1 1012.7
21 19.06 ЮЗ 1
{2}
29 км н/о +20.2 +16.8 81 +25 +25 комфорт 1014.2 1012.8 0
22 19.06 ЮЗ 1-1
{1}
29 км н/о +19.9 +16.7 82 +24 +24 комфорт 1014.5 1013.1
23 19.06 ЮЗ 1 29 км н/о +18.9 +16.1 84 +22 +22 комфорт 1014.2 1012.8
00 20.06 ЮЗ 1
{3}
26 км н/о +18.3 +15.7 85 +20 +20 1013.9 1012.5 0
01 20.06 СЗ 1 35 км н/о +18.4 +15.1 81 +21 +21 комфорт 1013.8 1012.4
02 20.06 ЮЗ 1 35 км н/о +17.7 +14.4 81 +19 +19 1013.8 1012.4
03 20.06 ЮЗ 2
{3}
40 км н/о +17.5 +14.4 82 +18 +18 1013.8 1012.4 0
04 20.06 ЮЗ 1-2
{2}
35 км н/о +17.1 +13.8 81 +18 +18 1014.0 1012.6
05 20.06 ЮЗ 1 28 км н/о +18.9 +15.0 78 +21 +21 комфорт 1014.2 1012.8
06 20.06 ЮЗ 2
{3}
40 км н/о +21.2 +15.7 71 +24 +24 комфорт 1014.3 1012.9 +17.0 +25.2 0
07 20.06 В 1 19 км н/о +24.8 +18.7 69 +30 +30 душно 1014.2 1012.8
08 20.06 ЮВ 2 40 км н/о +25.1 +18.3 66 +30 +30 душно 1014.1 1012.7
09 20.06 В 3
{5}
45 км н/о +26.1 +18.2 62 +31 +31 очень
душно
1014.1 1012.7 0
10 20.06 ЮВ 2 19 км н/о +26.2 +18.6 63 +31 +31 очень
душно
1014.1 1012.7
11 20.06 В 2 45 км н/о +26.6 +18.5 61 +31 +31 душно 1014.2 1012.8
12 20.06 В 4
{7}
17 км н/о +26.6 +19.0 63 +32 +32 очень
душно
1014.0 1012.6 0
13 20.06 В 2 45 км н/о +26.8 +19.2 63 +32 +32 очень
душно
1013.7 1012.3
14 20.06 В 2 19 км н/о +26.5 +19.4 65 +32 +32 очень
душно
1013.6 1012.2
15 20.06 В 2 35 км н/о +26.9 +19.5 64 +33 +33 очень
душно
1013.4 1012.0
16 20.06 В 2 60 км н/о +26.3 +18.9 64 +31 +31 душно 1013.3 1011.9
17 20.06 ЮВ 2 45 км н/о +25.5 +19.6 70 +31 +31 очень
душно
1013.1 1011.7
18 20.06 В 1
{4}
35 км н/о +24.6 +18.5 69 +29 +29 душно 1013.0 1011.6 +21.2 +27.2 0
19 20.06 В 1 19 км н/о +23.2 +19.4 79 +30 +30 очень
душно
1013.1 1011.7
20 20.06 ЮЗ 1 17 км н/о +21.8 +19.4 86 +27 +27 душно 1013.8 1012.4
21 20.06 ЮЗ 2-1
{3}
19 км н/о +20.7 +18.6 88 +26 +26 душно 1014.1 1012.7 0
22 20.06 ЮЗ 1 23 км н/о +20.2 +18.3 89 +25 +25 комфорт 1014.4 1013.0
23 20.06 ЮЗ 1 19 км н/о +20.1 +18.2 89 +25 +25 комфорт 1014.4 1013.0
00 21.06 ЮЗ 2
{2}
23 км н/о +20.2 +18.0 87 +24 +24 комфорт 1014.5 1013.1 0
01 21.06 ЮЗ 1 18 км н/о +19.7 +17.8 89 +23 +23 комфорт 1014.4 1013.0
02 21.06 ЮЗ 1 18 км н/о +18.8 +17.1 90 +21 +21 комфорт 1014.4 1013.0
03 21.06 ЮЗ 2
{3}
19 км 9/9 300 м
[]
+18.8 +16.9 89 +21 +21 комфорт 1014.5 1013.1 0
04 21.06 ЮЗ 1 19 км 8/8 450 м
[]
+19.0 +17.1 89 +22 +22 комфорт 1014.4 1013.0
05 21.06 ЮЗ 1 19 км н/о +19.9 +17.7 87 +24 +24 комфорт 1014.6 1013.2
06 21.06 Ю 2
{3}
19 км н/о +22.2 +19.2 83 +28 +28 душно 1014.4 1013.0 0
07 21.06 ЮВ 1 19 км н/о +24.7 +19.5 73 +30 +30 очень
душно
1014.6 1013.2
08 21.06 В 2 27 км н/о +25.6 +20.2 72 +32 +32 очень
душно
1014.7 1013.3
09 21.06 ЮВ 4
{7}
19 км 9/9 600 м
[]
+25.7 +20.0 71 +32 +33 очень
душно
1014.6 1013.2 0
10 21.06 ЮВ 3 29 км н/о +26.7 +20.1 67 +33 +33 очень
душно
1014.9 1013.5
11 21.06 В 3 30 км н/о +27.4 +20.2 65 +34 +34 очень
душно
1014.4 1013.0
12 21.06 ЮВ 6
{10}
28 км н/о +26.2 +20.8 72 +33 +33 очень
душно
1014.5 1013.1 0
13 21.06 ЮВ 3 27 км 9/9 540 м
[]
+26.7 +21.0 71 +34 +35 очень
душно
1014.9 1013.5
14 21.06 ЮВ 3 19 км 8/8 600 м
[]
+25.5 +21.2 77 +32 +35 очень
душно
1014.3 1012.9
15 21.06 ЮВ 4
{8}
19 км 10/10 300 м
[]
+24.9 +20.8 78 +31 +31 очень
душно
1013.2 1011.8 0
16 21.06 ЮВ 3 19 км 10/10 300 м
[]
+24.1 +21.2 84 +30 +30 очень
душно
1013.2 1011.8
17 21.06 ЮВ 2 19 км 9/9 450 м
[]
+24.2 +20.7 81 +30 +31 очень
душно
1013.6 1012.2
18 21.06 В 2
{5}
14 км н/о +24.0 +21.3 85 +30 +30 очень
душно
1013.7 1012.3 +22.2 +27.4 0
19 21.06 ЮВ 1 10 км н/о +23.3 +21.4 89 +31 +31 очень
душно
1013.4 1012.0
20 21.06 ЮВ 1 7000 м 8/8 450 м
[]
+22.7 +21.2 91 +30 +30 очень
душно
1013.7 1012.3
21 21.06 СВ 2
{2}
6000 м 8/8 300 м
[]
+22.2 +20.8 92 +29 +29 очень
душно
1013.9 1012.5 0
22 21.06 ЮВ 1 5000 м 9/9
[]
+21.8 +20.8 94 +28 +28 душно 1013.5 1012.1
23 21.06 С 1 7000 м 9/4 420 м
[]
+22.0 +21.0 94 +28 +28 душно 1013.9 1012.5 0.0
00 22.06 З 2
{4}
7000 м 9/9 300 м
[]
+22.1 +20.9 93 +29 +29 очень
душно
1013.6 1012.2 0.0 0
01 22.06 ЮВ 1 5000 м слаб. дождь 10/10 360 м
[]
+22.2 +21.0 93 +29 +29 очень
душно
1013.3 1011.9 0.0
02 22.06 В 1 3800 м дымка 9/3 540 м
[]
+21.7 +20.5 93 +27 +27 душно 1012.2 1010.8 0.6
03 22.06 ЮВ 1
{2}
1700 м дымка н/о +20.8 +19.6 93 +26 +26 душно 1012.7 1011.3 0.6 0
04 22.06 0 дымка н/о 1011.6
05 22.06 СЗ 1 4400 м дымка н/о +22.0 +21.2 95 +28 +28 душно 1012.4 1011.0
06 22.06 ЮЗ 1
{2}
13 км н/о +23.2 +21.8 92 +31 +31 очень
душно
1012.4 1011.0 +20.6 +24.0 0.2 0
07 22.06 Ю 1 15 км 9/6 330 м
[]
+24.0 +19.9 78 +29 +31 душно 1012.6 1011.2
08 22.06 В 2 13 км н/о +24.5 +21.4 83 +31 +31 очень
душно
1012.8 1011.4
09 22.06 СВ 2
{4}
19 км 9/9 600 м
[]
+26.4 +20.7 71 +33 +34 очень
душно
1013.1 1011.7 0
10 22.06 В 2 18 км 9/9 540 м
[]
+25.8 +21.2 76 +33 +35 очень
душно
1013.5 1012.1
11 22.06 В 2 19 км 8/8 540 м
[]
+27.1 +20.9 69 +34 +38 очень
душно
1013.3 1011.9
12 22.06 В 4
{7}
19 км н/о +27.4 +20.7 67 +34 +34 очень
душно
1013.1 1011.7 0
13 22.06 В 2 19 км н/о +28.0 +20.3 63 +34 +34 очень
душно
1012.4 1011.0
14 22.06 С 3 19 км н/о +27.6 +20.2 64 +34 +34 очень
душно
1011.8 1010.4
15 22.06 С 8
{12}
40 км н/о +27.7 +19.8 62 +34 +34 очень
душно
1012.0 1010.6 0
16 22.06 С 3 40 км н/о +27.1 +20.4 67 +34 +34 очень
душно
1012.1 1010.7
17 22.06 С 3 19 км н/о +26.4 +18.8 63 +31 +31 душно 1012.0 1010.6
18 22.06 С 7
{13}
35 км н/о +25.4 +18.8 67 +30 +30 душно 1012.0 1010.6 +23.2 +28.4 0
19 22.06 СВ 2 27 км н/о +23.8 +18.2 71 +28 +28 душно 1012.0 1010.6
20 22.06 С 2 27 км н/о +23.3 +17.3 69 +29 +29 душно 1013.1 1011.7
21 22.06 СЗ 2
{9}
35 км н/о +23.0 +17.2 70 +28 +28 душно 1013.5 1012.1 0
22 22.06 З 2 26 км н/о +22.0 +16.9 73 +26 +26 душно 1013.8 1012.4
23 22.06 СЗ 1-2
{5}
35 км н/о +22.3 +16.3 69 +27 +27 душно 1013.8 1012.4
00 23.06 З 2
{5}
40 км н/о +20.9 +14.8 68 +25 +25 комфорт 1014.0 1012.6 0
01 23.06 ЮЗ 1 40 км н/о +21.0 +13.9 64 +25 +25 комфорт 1014.0 1012.6
02 23.06 ЮЗ 2-3
{3}
40 км н/о +20.8 +14.9 69 +25 +25 комфорт 1013.8 1012.4
03 23.06 ЮЗ 4-3
{7}
40 км н/о +20.8 +14.4 67 +24 +24 комфорт 1013.8 1012.4 0
04 23.06 ЮЗ 2 40 км н/о +20.3 +14.2 68 +23 +23 комфорт 1013.9 1012.5
05 23.06 Ю 1 45 км н/о +21.5 +14.6 65 +25 +25 комфорт 1014.0 1012.6
06 23.06 ЮЗ 4
{8}
45 км н/о +22.8 +14.4 59 +26 +26 жарко 1014.4 1013.0 0
07 23.06 Ю 1 45 км н/о +25.3 +15.6 55 +28 +28 жарко 1014.8 1013.4
08 23.06 ЮВ 3 35 км н/о +26.6 +17.7 58 +31 +31 душно 1014.7 1013.3
09 23.06 ЮВ 5
{8}
18 км н/о +26.5 +18.6 62 +31 +31 душно 1015.1 1013.7 0
10 23.06 ЮВ 3 30 км н/о +26.9 +17.4 56 +31 +31 душно 1015.7 1014.3
11 23.06 В 3 29 км н/о +27.4 +18.7 59 +32 +32 очень
душно
1015.8 1014.4
12 23.06 В 4
{7}
50 км н/о +27.4 +17.8 56 +32 +32 очень
душно
1015.9 1014.5 0
13 23.06 В 2 35 км н/о +27.4 +18.1 57 +32 +32 очень
душно
1016.0 1014.6
14 23.06 ЮВ 2 35 км н/о +27.4 +17.8 56 +32 +32 очень
душно
1015.9 1014.5
15 23.06 В 4
{6}
45 км н/о +27.1 +18.1 58 +32 +32 очень
душно
1015.7 1014.3 0
16 23.06 В 2 35 км н/о +26.1 +18.8 64 +31 +31 очень
душно
1015.6 1014.2
17 23.06 В 1 35 км н/о +25.6 +19.5 69 +31 +31 очень
душно
1015.6 1014.2
18 23.06 В 2
{3}
19 км н/о +24.6 +19.2 72 +30 +30 очень
душно
1015.6 1014.2 +22.9 +27.9 0
19 23.06 ЮВ 1 19 км н/о +23.0 +19.4 80 +29 +29 очень
душно
1015.5 1014.1
20 23.06 Ю 1 11 км н/о +21.7 +19.3 86 +27 +27 душно 1016.0 1014.6
21 23.06 С 1
{3}
12 км н/о +20.9 +18.7 87 +26 +26 душно 1016.8 1015.4 0
22 23.06 З 1 19 км 9/9
[]
+21.3 +18.7 85 +26 +26 душно 1017.1 1015.7
23 23.06 0-1 н/о 1016.1
00 24.06 ЮЗ 2
{3}
18 км н/о +19.4 +17.4 88 +22 +22 комфорт 1017.4 1016.0 0
01 24.06 Ю 1 12 км н/о +18.6 +17.3 92 +21 +21 комфорт 1017.2 1015.8
02 24.06 З 1 20 км н/о +18.6 +16.6 88 +21 +21 комфорт 1017.2 1015.8
03 24.06 ЮЗ 2-1
{3}
13 км н/о 1015.8 0
05 24.06 ЮЗ 1 19 км н/о +20.2 +17.8 86 +25 +25 комфорт 1017.5 1016.1
06 24.06 СЗ 1
{2}
45 км н/о +23.5 +16.5 65 +27 +27 душно 1017.7 1016.3 +18.0 +24.6 0
07 24.06 СЗ 1 50 км н/о +25.9 +15.9 54 +29 +29 душно 1018.1 1016.7
08 24.06 СВ 1 19 км н/о +28.1 +14.0 42 +30 +30 жарко 1018.1 1016.7

 

Местоположение метеостанции Бастия (Франция): широта 42.55 долгота 9.48 высота над уровнем моря 12 м.

В архиве по умолчанию представлена погода в Бастии за последнюю неделю. Архивные данные за месяц целиком и за предыдущие месяцы, начиная с января 2011 года, Вы можете получить, выбрав интересующий диапазон дат из раскрывающегося списка и нажав кнопку "Ввод!".


*Определитесь, кто Вы:
робот инопланетянин человек

Внимание! Время в таблицах - всемирное. Для получения местного времени необходимо прибавить поправку, которая равна 1 ч.

Смотрите также архив погоды в соседних городах и на ближайших метеорологических станциях:

Погода на Мысе Сагро (Франция) (28 км)
Погода в Алистро (Франция) (31 км)
Погода в Л’Иль-Русе (Франция) (47 км)
Погода на Мысе Корсика (Франция) (51 км)
Погода в Кальви (Франция) (56 км)
Погода в Соленцаре (Франция) (70 км)
Погода на Mонте Каламита (Италия) (78 км)
Погода в Аяччо (Франция) (90 км)
Погода в Ла Парате (Франция) (100 км)
Погода в Фигари (Франция) (121 км)

Пояснения к столбцам:

Ветер - указаны скорость ветра в м/с - средняя за 10 мин, порывы в срок и между сроками (в фигурных скобках) и направление, откуда дует ветер: С - северный, СВ - северо-восточный, В - восточный, ЮВ - юго-восточный, Ю - южный, ЮЗ - юго-западный, З - западный, СЗ - северо-западный.
Видимость - горизонтальная дальность видимости в метрах или километрах. При видимости от 1 до 10 км при отсутствии осадков обычно наблюдается дымка, при ухудшении видимости до 1 км и менее - туман. В сухую погоду видимость может ухудшаться дымом, пылью или мглою.
Явления - указаны атмосферные явления, наблюдавшиеся в срок или в последний час перед сроком; фигурными скобками обозначены явления, наблюдавшиеся между сроками (за 1-3 часа до срока); квадратными скобками обозначены град или гололедные отложения с указанием их диаметра в мм.
Облачность - указаны через наклонную черту общая и нижняя облачность в баллах и высота нижней границы облаков в метрах; квадратными скобками обозначены формы облаков: Ci - перистые, Cs - перисто-слоистые, Cc - перисто-кучевые, Ac - высококучевые, As - высокослоистые, Sc - слоисто-кучевые, Ns - слоисто-дождевые, Cu - кучевые, Cb - кучево-дождевые. Подробнее классификацию облаков см. в Атласе облаков (PDF).
T - Температура воздуха - температура, измеренная на высоте 2 м над землей.
Td - Температура точки росы - температура, при понижении до которой содержащийся в воздухе водяной пар достигнет насыщения.
f - Относительная влажность воздуха - влажноcть воздуха, измеренная на высоте 2 м над землей.
Te - Эффективная температура - температура, которую ощущает одетый по сезону человек в тени. Характеристика душности погоды. При расчете учитывается влияние влажности воздуха и скорости ветра на теплоощущения человека.
Tes - Эффективная температура на солнце - температура, которую ощущает человек, с поправкой на солнечный нагрев. Характеристика знойности погоды. Зависит от высоты солнца над горизонтом, облачности и скорости ветра. Ночью, в пасмурную погоду, а также при ветре 12 м/с и более поправка равна нулю.
P - Атмосферное давление - приведенное к уровню моря атмосферное давление.
Po - Атмосферное давление - измеренное на уровне метеостанции атмосферное давление.
Tmin - Минимальная температура - минимум температуры воздуха на высоте 2 м над землей.
Tmax - Максимальная температура - максимум температуры воздуха на высоте 2 м над землей.
R - Количество осадков - Количество выпавших осадков за период времени, мм. При наведении курсора мыши на число - период времени, за который выпало указанное количество осадков.
R24 - Количество осадков - Количество выпавших осадков за 24 часа, мм.
S - Снежный покров - Высота снежного покрова, см. При наведении курсора мыши на число - состояние снежного покрова и степень покрытия местности в баллах.